Location: downtown San Diego
(32.7310°N, 117.1990°W)
Time: 16:09:50
(UTC-07:00)

Cosmos 1733 - Pass Details

Date: 14 June 2018
Orbit: 507 x 524 km, 82.5° (Epoch: 18 September)

Event Time Altitude Azimuth Distance (km) Brightness Sun altitude
Rises 21:34:04 0° 351° (N) 2,617 7.7 -17.2°
Reaches altitude 10° 21:36:12 10° 349° (N) 1,726 6.7 -17.5°
Maximum altitude 21:39:58 72° 266° (W) 537 3.3 -18.0°
Enters shadow 21:41:36 32° 188° (S) 890 4.0 -18.3°
